Wind_Speed
7 6 6 6 6 6 5 4 3 4 4 5 5 6 6 6 7 7 8 8 7 6 6 6 5 5 6 6 6 5 5 5 5 5 5 5 5 5 5 4 4 5 5 5
9 8 8 8 7 6 6 6 6 7 6 6 6 7 7 7 7 8 8 8 8 8 7 6 6 7 7 7 7 6 6 6 6 6 6 6 6 6 6 6 6 6 6 6
12 11 10 9 8 8 8 8 8 8 7 7 8 7 7 8 8 8 8 9 8 9 8 7 7 8 8 8 8 8 8 8 8 8 8 8 8 8 8 8 8 8 7 7
14 13 12 11 10 9 9 9 9 9 8 8 8 8 9 9 10 10 10 10 10 9 9 8 8 9 9 9 9 9 9 9 9 9 10 9 9 9 9 9 9 8 8 8
15 14 14 13 12 12 11 10 10 10 9 9 8 8 10 10 11 11 11 11 11 10 9 9 10 10 10 10 10 10 9 9 9 10 11 11 11 11 10 10 10 9 9 9
16 16 15 14 14 13 12 11 11 10 10 10 9 9 10 11 11 11 11 11 11 11 11 10 11 11 12 12 11 10 10 10 10 11 11 11 11 11 11 10 10 10 10 11
17 17 16 15 14 13 13 11 11 10 10 11 12 11 11 11 11 11 11 11 11 11 11 11 12 12 12 12 12 11 11 11 12 12 12 12 12 12 11 11 11 11 11 11
18 18 17 16 15 14 14 12 12 12 11 12 13 12 12 12 12 13 13 13 13 13 13 13 13 13 13 13 13 12 12 12 12 13 13 13 13 13 12 12 13 13 13 13
19 19 19 17 16 16 15 15 14 14 14 13 14 14 13 12 13 14 14 14 14 15 14 14 14 14 14 14 14 14 14 14 13 14 14 14 14 13 13 14 14 14 15 15
21 20 20 18 17 17 17 17 16 15 15 14 15 15 14 15 15 15 15 15 15 16 16 16 15 15 14 14 15 15 15 14 14 14 15 14 15 14 14 15 15 15 16 16
22 22 21 20 19 19 18 18 17 17 17 15 15 16 16 17 17 17 16 15 16 16 16 17 17 17 16 16 15 15 15 15 15 15 16 16 16 16 16 16 17 17 17 17
22 22 22 22 21 20 20 20 19 18 19 18 17 18 18 18 18 18 17 17 17 17 17 17 17 17 17 17 16 16 16 16 16 16 16 17 17 18 18 18 19 19 19 19
23 23 22 22 22 22 22 22 20 19 20 20 19 19 20 20 19 18 18 18 18 18 18 18 18 18 18 18 17 17 17 18 18 17 17 17 18 18 18 19 20 20 21 21
23 24 23 23 22 22 23 23 22 21 21 22 21 21 21 21 20 19 19 19 19 20 19 19 19 19 18 18 18 18 18 19 19 19 18 19 18 18 18 19 20 20 21 21
24 25 25 24 23 23 24 24 24 23 23 23 22 22 22 21 20 20 20 20 20 20 20 20 20 20 19 19 19 19 20 21 20 20 20 19 19 19 20 20 20 21 21 21
26 26 26 26 25 25 25 25 25 24 24 24 24 23 21 21 21 21 21 20 20 20 20 20 21 21 21 21 21 21 21 21 21 21 21 21 21 20 21 21 22 22 22 22
28 28 27 27 27 27 28 25 25 25 25 25 25 24 23 22 22 22 22 21 21 21 21 21 22 22 22 22 22 22 22 22 23 23 23 22 22 21 21 22 22 23 23 24
29 29 29 28 28 29 28 26 25 25 25 25 25 25 24 23 22 22 22 22 21 21 22 22 22 23 23 23 23 23 23 23 24 23 23 23 22 22 22 22 23 23 24 24
30 30 30 29 29 29 29 27 26 26 26 26 26 25 25 24 23 23 23 23 23 23 23 23 24 24 24 24 23 23 24 24 24 24 24 23 23 23 23 24 24 24 24 25
30 30 30 30 29 29 28 28 26 26 27 26 26 26 25 25 25 24 24 24 24 24 24 25 25 24 24 24 24 24 24 24 24 25 24 24 24 25 25 25 25 26 26 25
29 29 29 29 30 30 29 28 27 27 27 26 26 26 26 26 26 25 24 25 25 25 25 25 25 25 25 25 25 25 25 24 24 24 24 25 25 25 25 26 26 26 26 26
29 29 29 29 30 30 30 29 28 28 27 27 27 26 26 26 26 25 25 25 25 25 25 26 26 25 25 25 25 26 25 24 24 24 25 25 25 25 25 26 27 26 27 27
29 30 30 30 31 31 31 30 29 28 27 27 27 27 27 26 26 26 26 26 26 26 26 26 26 26 27 27 26 26 25 24 25 25 25 25 25 24 25 25 26 26 26 26
29 29 30 30 31 31 30 30 30 29 28 28 28 28 27 27 27 27 27 26 26 26 26 27 26 27 27 27 26 26 25 24 24 24 24 25 25 25 26 26 26 26 26 27
29 29 30 30 31 30 30 30 30 29 29 30 29 29 29 29 28 28 27 27 27 27 27 28 28 27 26 26 26 25 25 23 23 23 23 24 24 24 25 25 25 26 26 26
29 29 29 29 30 30 30 30 30 29 29 29 29 29 29 29 29 28 27 27 27 27 27 27 27 27 26 26 26 25 25 24 23 23 23 24 24 25 24 25 25 26 26 25
Wind_Direction
210 217 223 229 226 229 228 240 263 283 300 324 339 350 351 356 4 4 360 356 354 349 337 333 324 318 314 312 309 311 307 299 288 285 286 288 284 283 281 273 266 269 267 269
222 228 235 236 238 240 243 249 260 275 287 311 324 332 339 339 346 352 351 349 344 339 337 330 321 319 317 312 308 306 305 301 294 285 283 283 280 282 279 274 272 273 271 269
223 229 237 241 244 242 241 244 253 263 279 296 309 321 325 329 332 337 339 339 339 336 329 324 322 318 314 312 305 299 300 296 293 289 285 278 273 274 273 273 273 275 272 269
225 231 237 239 242 242 247 250 255 261 270 283 289 300 308 315 321 323 325 325 326 327 323 316 316 313 307 306 304 300 298 296 288 285 284 278 273 272 270 271 272 273 268 263
231 235 238 241 244 248 249 253 260 263 266 271 277 284 297 302 309 313 315 315 315 317 314 308 307 308 307 305 302 296 295 295 290 284 282 277 274 269 270 271 270 270 269 268
234 233 235 240 243 248 251 255 262 267 269 269 273 276 287 294 298 304 309 313 314 314 308 303 301 302 303 304 301 297 294 294 293 291 288 281 278 269 269 268 268 269 269 269
238 238 238 240 244 249 252 254 266 271 269 270 277 277 278 287 294 298 304 310 313 313 309 304 301 302 300 299 298 295 292 292 293 293 292 286 279 274 276 271 267 270 272 271
239 242 242 241 244 249 251 254 255 263 269 276 282 281 282 285 290 296 299 302 308 309 306 305 304 303 299 296 294 292 291 290 290 290 290 286 283 279 278 276 275 274 273 273
239 242 245 245 245 247 252 256 259 262 265 272 277 283 285 285 290 295 297 299 304 305 304 304 304 303 299 294 291 288 288 288 289 291 291 288 284 282 281 277 276 277 276 275
239 242 246 247 248 248 251 257 260 260 265 271 276 279 282 286 290 294 295 295 297 299 300 302 302 300 296 293 290 288 289 289 289 290 289 286 283 281 279 279 278 279 279 277
240 242 247 249 248 253 254 255 257 259 261 267 274 276 282 282 286 289 290 291 293 295 297 298 298 297 295 292 290 289 287 291 291 290 288 285 282 281 279 279 281 281 280 278
240 242 247 251 252 254 256 257 258 261 266 268 268 273 278 281 286 288 286 287 289 292 295 296 295 295 295 293 291 289 286 287 288 288 289 287 283 281 280 279 279 280 279 279
242 243 248 253 255 256 257 258 259 261 265 268 267 272 276 279 284 285 284 285 287 290 292 294 293 292 293 292 291 289 286 286 287 288 287 288 285 281 280 280 278 277 278 279
244 245 247 249 253 257 259 260 261 261 262 266 267 270 274 278 279 281 281 283 285 287 289 291 292 293 293 290 289 288 286 285 286 285 285 285 284 282 281 282 281 279 279 279
246 248 249 250 252 255 258 261 261 260 260 263 269 273 274 277 279 280 280 282 284 284 287 288 289 291 291 289 288 288 287 287 287 284 282 283 281 280 281 282 283 282 281 281
247 250 251 252 252 255 257 258 260 260 260 263 266 271 275 276 278 279 280 282 283 283 285 287 288 290 288 286 285 287 287 287 287 284 281 281 282 281 280 281 283 283 282 282
249 251 253 255 255 257 257 258 259 260 261 264 267 272 274 275 278 278 279 280 283 283 284 286 287 288 287 285 284 284 283 285 286 284 281 279 281 280 279 279 281 282 282 282
250 251 253 255 256 257 258 259 260 262 263 265 268 270 272 274 277 280 281 281 282 283 284 284 286 287 287 286 284 284 283 284 284 283 282 280 279 280 279 280 281 282 282 282
250 251 252 254 257 259 259 259 261 263 265 267 269 269 270 273 275 278 280 282 283 284 283 283 284 285 286 286 285 285 283 284 283 283 282 280 279 277 277 279 281 282 283 282
250 251 251 252 254 257 259 261 262 264 264 266 269 271 272 272 274 277 281 283 284 284 284 283 283 284 285 286 286 284 282 283 283 282 280 279 277 277 277 279 279 280 281 282
250 250 250 251 253 255 257 260 261 261 263 266 268 271 272 272 273 277 279 280 282 283 281 281 282 283 284 285 284 283 283 284 283 282 281 279 278 278 278 278 279 280 281 280
251 251 251 252 252 253 256 258 258 261 264 266 268 270 272 273 274 275 276 277 279 279 279 280 280 281 283 284 284 285 284 283 282 282 281 279 279 279 279 279 279 280 280 281
251 251 252 253 254 255 256 257 258 261 263 266 269 271 271 272 272 273 274 276 276 276 277 278 280 282 284 285 284 284 284 283 281 280 281 280 279 281 282 282 281 280 280 280
252 251 252 253 253 255 256 256 258 260 263 265 268 270 271 272 271 271 272 274 276 274 275 277 278 281 284 284 282 282 281 280 281 282 281 280 279 280 282 281 281 282 282 281
252 251 251 252 254 255 256 257 258 260 262 265 267 268 270 272 271 272 273 273 273 274 274 277 279 281 281 281 280 280 280 279 280 282 283 282 282 283 283 282 284 286 285 285
252 253 252 253 253 253 254 256 258 259 262 264 267 268 270 271 272 273 273 273 272 272 274 275 278 279 279 279 277 277 278 278 280 281 282 283 283 283 284 284 287 288 286 285
Height
5922 5924 5925 5926 5926 5927 5927 5928 5927 5927 5925 5925 5924 5923 5922 5920 5918 5916 5915 5913 5911 5910 5908 5906 5905 5903 5902 5901 5900 5899 5898 5897 5896 5895 5895 5894 5893 5893 5892 5892 5891 5891 5891 5891
5922 5923 5923 5924 5924 5925 5926 5926 5926 5926 5925 5924 5923 5922 5921 5920 5918 5917 5915 5913 5911 5909 5907 5906 5904 5903 5901 5900 5899 5898 5897 5896 5895 5894 5893 5893 5892 5891 5891 5891 5890 5890 5890 5889
5920 5921 5921 5922 5923 5923 5924 5925 5925 5924 5924 5923 5923 5922 5921 5919 5918 5916 5914 5912 5910 5909 5907 5905 5903 5902 5900 5899 5898 5897 5896 5895 5894 5893 5892 5891 5890 5890 5889 5889 5889 5888 5888 5888
5917 5918 5919 5920 5921 5922 5922 5922 5922 5922 5922 5923 5922 5922 5920 5918 5916 5915 5913 5911 5909 5907 5906 5904 5902 5901 5899 5898 5896 5895 5894 5893 5892 5891 5890 5889 5889 5888 5887 5887 5887 5886 5886 5885
5914 5915 5916 5917 5918 5919 5919 5920 5919 5920 5920 5921 5920 5920 5920 5917 5915 5913 5911 5909 5907 5906 5904 5902 5901 5899 5897 5896 5894 5893 5892 5890 5889 5889 5888 5887 5886 5885 5885 5885 5884 5884 5884 5883
5911 5912 5913 5914 5915 5915 5916 5917 5917 5917 5918 5919 5918 5918 5917 5915 5913 5911 5909 5907 5905 5903 5902 5900 5899 5897 5896 5894 5893 5891 5890 5889 5887 5886 5885 5884 5883 5882 5882 5882 5882 5881 5881 5880
5908 5908 5909 5911 5911 5912 5913 5915 5916 5917 5917 5917 5915 5914 5915 5912 5910 5909 5907 5905 5903 5901 5899 5898 5896 5895 5893 5892 5890 5889 5888 5886 5885 5884 5882 5881 5880 5880 5879 5879 5878 5878 5878 5877
5904 5906 5906 5907 5908 5909 5910 5912 5914 5915 5915 5914 5911 5911 5911 5909 5907 5906 5904 5902 5900 5898 5897 5895 5893 5892 5890 5889 5887 5886 5885 5883 5882 5881 5880 5879 5878 5877 5876 5876 5875 5875 5875 5874
5901 5902 5902 5903 5904 5906 5906 5907 5909 5910 5909 5909 5909 5907 5906 5905 5904 5902 5901 5899 5897 5895 5893 5892 5890 5888 5887 5885 5884 5883 5881 5880 5879 5878 5877 5875 5875 5874 5873 5872 5872 5871 5871 5870
5895 5897 5898 5899 5900 5901 5902 5903 5904 5905 5905 5905 5905 5904 5903 5901 5900 5899 5897 5895 5893 5891 5890 5888 5886 5885 5883 5881 5880 5879 5878 5877 5876 5874 5873 5872 5871 5870 5869 5868 5868 5867 5866 5865
5890 5892 5893 5894 5895 5896 5897 5898 5898 5899 5900 5901 5902 5903 5899 5897 5895 5894 5893 5891 5889 5888 5886 5884 5882 5881 5879 5878 5876 5875 5874 5873 5872 5870 5869 5868 5867 5866 5865 5864 5863 5862 5861 5860
5884 5886 5888 5889 5890 5890 5891 5892 5893 5895 5895 5895 5896 5899 5894 5892 5891 5889 5888 5887 5885 5883 5881 5880 5878 5877 5875 5873 5872 5871 5869 5868 5867 5866 5865 5863 5862 5861 5860 5859 5858 5857 5856 5855
5878 5880 5882 5883 5885 5885 5885 5886 5887 5889 5889 5889 5891 5893 5888 5887 5886 5884 5883 5882 5880 5879 5877 5875 5873 5872 5870 5869 5867 5866 5864 5863 5862 5861 5859 5858 5857 5856 5854 5853 5852 5851 5850 5850
5872 5874 5877 5879 5879 5879 5879 5880 5881 5882 5883 5883 5884 5885 5883 5881 5880 5879 5878 5877 5875 5874 5872 5870 5868 5867 5865 5863 5862 5860 5859 5858 5856 5855 5854 5853 5851 5850 5849 5848 5846 5845 5844 5843
5865 5867 5868 5870 5872 5872 5873 5873 5874 5875 5876 5877 5878 5877 5876 5875 5874 5873 5872 5871 5870 5868 5866 5865 5863 5861 5859 5858 5856 5855 5853 5852 5850 5849 5848 5847 5845 5844 5843 5842 5840 5839 5838 5837
5858 5860 5861 5863 5864 5865 5866 5867 5868 5868 5869 5870 5870 5870 5870 5869 5868 5867 5866 5865 5864 5862 5861 5859 5857 5855 5854 5852 5850 5849 5847 5845 5844 5842 5841 5840 5839 5838 5836 5835 5834 5833 5831 5830
5850 5852 5854 5856 5857 5857 5858 5860 5861 5862 5862 5863 5863 5864 5863 5863 5862 5861 5860 5858 5857 5856 5854 5853 5851 5849 5848 5846 5844 5843 5841 5839 5837 5836 5834 5833 5832 5831 5830 5829 5827 5826 5825 5823
5843 5844 5846 5848 5849 5849 5853 5853 5854 5854 5855 5856 5856 5856 5856 5856 5855 5854 5853 5852 5851 5849 5848 5846 5845 5843 5841 5839 5838 5836 5834 5833 5831 5829 5828 5827 5826 5824 5823 5822 5820 5819 5817 5816
5834 5836 5838 5840 5841 5842 5844 5845 5846 5847 5847 5848 5848 5849 5849 5849 5848 5847 5846 5845 5844 5843 5841 5840 5838 5836 5834 5833 5831 5829 5827 5825 5823 5822 5821 5820 5818 5817 5816 5815 5813 5811 5810 5808
5825 5827 5830 5831 5833 5834 5837 5837 5839 5840 5839 5841 5841 5841 5841 5841 5841 5841 5839 5838 5837 5835 5834 5832 5830 5828 5827 5826 5824 5822 5820 5818 5816 5815 5813 5812 5811 5810 5809 5807 5805 5804 5802 5801
5817 5818 5820 5822 5823 5826 5828 5829 5831 5833 5833 5833 5833 5833 5833 5833 5833 5833 5832 5831 5829 5828 5826 5825 5823 5822 5820 5818 5816 5814 5812 5811 5809 5807 5806 5805 5803 5802 5801 5799 5798 5796 5795 5793
5808 5810 5812 5814 5816 5819 5819 5821 5822 5823 5824 5824 5825 5825 5825 5825 5825 5824 5824 5823 5822 5820 5819 5817 5816 5814 5812 5810 5808 5806 5805 5803 5801 5800 5799 5797 5796 5794 5793 5792 5790 5788 5787 5785
5799 5802 5803 5806 5809 5809 5810 5812 5813 5815 5816 5816 5817 5817 5817 5816 5816 5816 5815 5815 5813 5812 5811 5809 5808 5806 5804 5802 5800 5799 5797 5796 5794 5793 5791 5790 5789 5787 5785 5784 5782 5780 5779 5777
5790 5792 5794 5796 5798 5800 5801 5803 5804 5806 5807 5808 5808 5808 5809 5808 5808 5807 5807 5806 5805 5804 5803 5801 5799 5798 5796 5794 5793 5792 5790 5788 5787 5785 5784 5782 5781 5780 5778 5776 5775 5773 5771 5769
5781 5783 5785 5787 5788 5790 5792 5794 5795 5797 5798 5799 5799 5800 5800 5799 5799 5798 5797 5797 5796 5795 5794 5793 5791 5789 5788 5786 5785 5784 5783 5781 5780 5778 5777 5775 5774 5772 5771 5769 5767 5765 5763 5761
5772 5774 5776 5778 5779 5781 5783 5785 5787 5788 5789 5790 5791 5791 5791 5790 5790 5789 5788 5788 5788 5787 5786 5784 5783 5781 5780 5778 5777 5776 5775 5774 5773 5771 5770 5768 5766 5765 5763 5761 5760 5758 5756 5754